Location: Unspecified
(0.0000°N, 0.0000°E)
Time: 20:08:34
(UTC+00:00)

N. Korean satellite - Pass Details

Date: 27 May 2023
Orbit: 364 x 379 km, 97.3° (Epoch: 04 June)

Event Time Altitude Azimuth Distance (km) Brightness Sun altitude
Rises 05:21:35 0° 5° (N) 2,257 10.3 -8.3°
Reaches altitude 10° 05:23:33 10° 0° (N) 1,407 9.2 -7.8°
Maximum altitude 05:26:30 56° 281° (W) 463 6.2 -7.1°
Drops below altitude 10° 05:29:28 10° 201° (SSW) 1,414 8.5 -6.4°
Sets 05:31:27 0° 197° (SSW) 2,269 9.6 -6.0°
